When you browse on this site, cookies collect data to enhance your experience and personalize the content and advertising you see.
Visit our Privacy Policy to learn more. By continuing to use the site, you agree to this use of cookies and data.
  • In Hungary
  • List of Countries
  • For 7 days
  • Water Temperature
  • Satellite Maps
  • Weather Map
  • News
  • Weather Widgets
  • user-avatar
    Login

    Hourly Weather Burajda

    Today, 11 December, Tuesday

    Time Temperature Precipitation Wind Pressure Humidity
    00:00 +16°C° 0 mm 3 mps 709 mmHg 72%
    01:00 +16°C° 0 mm 3 mps 709 mmHg 74%
    02:00 +16°C° 0 mm 3 mps 709 mmHg 75%
    03:00 +14°C° 0 mm 3 mps 709 mmHg 78%
    04:00 +14°C° 0 mm 3 mps 709 mmHg 79%
    05:00 +14°C° 0 mm 3 mps 709 mmHg 81%
    06:00 +13°C° 0 mm 3 mps 709 mmHg 82%
    07:00 +14°C° 0 mm 3 mps 710 mmHg 78%
    08:00 +16°C° 0 mm 3 mps 710 mmHg 75%
    09:00 +17°C° 0 mm 4 mps 710 mmHg 70%
    10:00 +18°C° 0 mm 3 mps 710 mmHg 64%
    11:00 +19°C° 0 mm 3 mps 710 mmHg 59%
    12:00 +21°C° 0 mm 3 mps 710 mmHg 54%
    13:00 +21°C° 0 mm 3 mps 710 mmHg 51%
    14:00 +23°C° 0 mm 2 mps 710 mmHg 48%
    15:00 +24°C° 0 mm 2 mps 710 mmHg 45%
    16:00 +23°C° 0 mm 2 mps 710 mmHg 47%
    17:00 +21°C° 0 mm 3 mps 710 mmHg 49%
    18:00 +21°C° 0 mm 3 mps 710 mmHg 51%
    19:00 +20°C° 0 mm 3 mps 710 mmHg 54%
    20:00 +20°C° 0 mm 3 mps 710 mmHg 57%
    21:00 +19°C° 0 mm 4 mps 711 mmHg 59%
    22:00 +19°C° 0 mm 4 mps 711 mmHg 61%
    23:00 +18°C° 0 mm 4 mps 711 mmHg 63%

    Tomorrow, 12 December, Wednesday

    Time Temperature Precipitation Wind Pressure Humidity
    00:00 +18°C° 0 mm 4 mps 711 mmHg 65%
    01:00 +17°C° 0 mm 3 mps 710 mmHg 66%
    02:00 +17°C° 0 mm 3 mps 710 mmHg 68%
    03:00 +17°C° 0 mm 3 mps 710 mmHg 69%
    04:00 +16°C° 0 mm 3 mps 710 mmHg 71%
    05:00 +16°C° 0 mm 3 mps 710 mmHg 73%
    06:00 +16°C° 0 mm 3 mps 710 mmHg 75%
    07:00 +17°C° 0 mm 3 mps 710 mmHg 72%
    08:00 +18°C° 0 mm 3 mps 711 mmHg 69%
    09:00 +18°C° 0 mm 3 mps 711 mmHg 66%
    10:00 +20°C° 0 mm 3 mps 711 mmHg 60%
    11:00 +21°C° 0 mm 3 mps 711 mmHg 54%
    12:00 +24°C° 0 mm 3 mps 711 mmHg 49%
    13:00 +25°C° 0 mm 3 mps 710 mmHg 46%
    14:00 +25°C° 0 mm 3 mps 710 mmHg 43%
    15:00 +26°C° 0 mm 3 mps 709 mmHg 40%
    16:00 +25°C° 0 mm 3 mps 709 mmHg 42%
    17:00 +25°C° 0 mm 3 mps 709 mmHg 43%
    18:00 +24°C° 0 mm 3 mps 709 mmHg 45%
    19:00 +24°C° 0 mm 3 mps 709 mmHg 46%
    20:00 +22°C° 0 mm 4 mps 709 mmHg 47%
    21:00 +22°C° 0 mm 4 mps 710 mmHg 48%
    22:00 +22°C° 0 mm 4 mps 710 mmHg 49%
    23:00 +22°C° 0 mm 5 mps 709 mmHg 49%

    Day after tomorrow, 13 December, Thursday

    Time Temperature Precipitation Wind Pressure Humidity
    00:00 +21°C° 0 mm 5 mps 709 mmHg 50%
    01:00 +21°C° 0 mm 5 mps 709 mmHg 50%
    02:00 +21°C° 0 mm 5 mps 709 mmHg 51%
    03:00 +21°C° 0 mm 5 mps 709 mmHg 52%
    04:00 +21°C° 0 mm 5 mps 709 mmHg 53%
    05:00 +20°C° 0 mm 5 mps 709 mmHg 54%
    06:00 +20°C° 0 mm 5 mps 709 mmHg 55%
    07:00 +21°C° 0 mm 5 mps 710 mmHg 53%
    08:00 +21°C° 0 mm 6 mps 710 mmHg 51%
    09:00 +22°C° 0 mm 6 mps 711 mmHg 49%
    10:00 +24°C° 0 mm 6 mps 710 mmHg 44%
    11:00 +26°C° 0 mm 6 mps 710 mmHg 39%
    12:00 +28°C° 0 mm 6 mps 710 mmHg 34%
    13:00 +28°C° 0 mm 5 mps 710 mmHg 32%
    14:00 +29°C° 0 mm 5 mps 709 mmHg 30%
    15:00 +29°C° 0 mm 4 mps 709 mmHg 28%
    16:00 +28°C° 0 mm 3 mps 709 mmHg 30%
    17:00 +27°C° 0 mm 3 mps 709 mmHg 33%
    18:00 +26°C° 0 mm 2 mps 709 mmHg 35%
    19:00 +26°C° 0 mm 3 mps 709 mmHg 37%
    20:00 +25°C° 0 mm 3 mps 710 mmHg 39%
    21:00 +24°C° 0 mm 3 mps 710 mmHg 42%
    22:00 +24°C° 0 mm 3 mps 710 mmHg 43%
    23:00 +22°C° 0 mm 3 mps 710 mmHg 44%

    14 December, Friday

    Time Temperature Precipitation Wind Pressure Humidity
    00:00 +22°C° 0 mm 3 mps 710 mmHg 45%
    01:00 +22°C° 0 mm 3 mps 709 mmHg 46%
    02:00 +22°C° 0 mm 3 mps 709 mmHg 46%
    03:00 +22°C° 0 mm 3 mps 709 mmHg 46%
    04:00 +21°C° 0 mm 3 mps 709 mmHg 47%
    05:00 +21°C° 0 mm 3 mps 709 mmHg 48%
    06:00 +21°C° 0 mm 3 mps 709 mmHg 49%
    07:00 +21°C° 0 mm 3 mps 710 mmHg 48%
    08:00 +22°C° 0 mm 3 mps 710 mmHg 47%
    09:00 +22°C° 0 mm 4 mps 711 mmHg 46%
    10:00 +23°C° 0 mm 4 mps 711 mmHg 42%
    11:00 +25°C° 0 mm 4 mps 711 mmHg 39%
    12:00 +27°C° 0 mm 4 mps 710 mmHg 36%
    13:00 +27°C° 0 mm 4 mps 710 mmHg 36%
    14:00 +27°C° 0 mm 4 mps 710 mmHg 35%
    15:00 +27°C° 0 mm 4 mps 709 mmHg 34%
    16:00 +26°C° 0.2 mm 3 mps 709 mmHg 37%
    17:00 +25°C° 0.2 mm 3 mps 710 mmHg 40%
    18:00 +24°C° 0.2 mm 3 mps 710 mmHg 43%
    19:00 +24°C° 0.3 mm 3 mps 710 mmHg 46%
    20:00 +22°C° 0.3 mm 3 mps 710 mmHg 49%
    21:00 +21°C° 0.3 mm 3 mps 711 mmHg 52%
    22:00 +21°C° 0.3 mm 3 mps 710 mmHg 54%
    23:00 +20°C° 0.3 mm 3 mps 710 mmHg 57%

    15 December, Saturday

    Time Temperature Precipitation Wind Pressure Humidity
    00:00 +20°C° 0.3 mm 3 mps 710 mmHg 59%
    01:00 +20°C° 0.2 mm 3 mps 710 mmHg 60%
    02:00 +19°C° 0.2 mm 3 mps 710 mmHg 62%
    03:00 +19°C° 0.2 mm 3 mps 710 mmHg 63%
    04:00 +19°C° 0.1 mm 3 mps 710 mmHg 64%
    05:00 +19°C° 0.1 mm 3 mps 710 mmHg 66%
    06:00 +18°C° 0.1 mm 3 mps 710 mmHg 67%
    07:00 +19°C° 0 mm 3 mps 711 mmHg 63%
    08:00 +20°C° 0 mm 4 mps 711 mmHg 59%
    09:00 +20°C° 0 mm 4 mps 712 mmHg 55%
    10:00 +21°C° 0 mm 4 mps 712 mmHg 51%
    11:00 +22°C° 0 mm 4 mps 711 mmHg 47%
    12:00 +23°C° 0 mm 5 mps 711 mmHg 44%
    13:00 +23°C° 0 mm 4 mps 711 mmHg 43%
    14:00 +23°C° 0 mm 4 mps 710 mmHg 43%
    15:00 +23°C° 0 mm 4 mps 710 mmHg 43%
    16:00 +23°C° 0 mm 4 mps 710 mmHg 45%
    17:00 +22°C° 0 mm 3 mps 710 mmHg 47%
    18:00 +22°C° 0 mm 3 mps 711 mmHg 48%
    19:00 +21°C° 0 mm 3 mps 711 mmHg 49%
    20:00 +21°C° 0 mm 4 mps 711 mmHg 50%
    21:00 +21°C° 0 mm 4 mps 711 mmHg 51%
    22:00 +20°C° 0 mm 4 mps 711 mmHg 51%
    23:00 +20°C° 0 mm 4 mps 711 mmHg 51%

    16 December, Sunday

    Time Temperature Precipitation Wind Pressure Humidity
    00:00 +20°C° 0 mm 4 mps 711 mmHg 51%
    01:00 +20°C° 0 mm 4 mps 711 mmHg 51%
    02:00 +20°C° 0 mm 4 mps 711 mmHg 52%
    03:00 +19°C° 0 mm 4 mps 711 mmHg 52%
    04:00 +19°C° 0 mm 4 mps 711 mmHg 52%
    05:00 +19°C° 0 mm 5 mps 711 mmHg 52%
    06:00 +19°C° 0 mm 5 mps 711 mmHg 52%
    07:00 +19°C° 0 mm 6 mps 711 mmHg 50%
    08:00 +20°C° 0 mm 6 mps 712 mmHg 47%
    09:00 +20°C° 0 mm 7 mps 712 mmHg 44%
    10:00 +21°C° 0 mm 7 mps 712 mmHg 42%
    11:00 +21°C° 0 mm 7 mps 712 mmHg 40%
    12:00 +22°C° 0 mm 7 mps 711 mmHg 38%
    13:00 +22°C° 0 mm 7 mps 711 mmHg 38%
    14:00 +23°C° 0 mm 6 mps 710 mmHg 38%
    15:00 +23°C° 0 mm 5 mps 710 mmHg 37%
    16:00 +22°C° 0 mm 5 mps 710 mmHg 39%
    17:00 +22°C° 0 mm 5 mps 710 mmHg 41%
    18:00 +21°C° 0 mm 4 mps 710 mmHg 43%
    19:00 +21°C° 0 mm 4 mps 710 mmHg 44%
    20:00 +21°C° 0 mm 5 mps 711 mmHg 46%
    21:00 +20°C° 0 mm 5 mps 711 mmHg 47%
    22:00 +20°C° 0 mm 5 mps 710 mmHg 49%
    23:00 +20°C° 0 mm 6 mps 710 mmHg 50%
    Show more